Location: Hradec Kralove
(50.2167°N, 15.8333°E)
Time: 01:53:06
(UTC+01:00)

ISS - Visible Passes

Search period start: 21 November 2017 00:00
Search period end: 01 December 2017 00:00
Orbit: 402 x 407 km, 51.6° (Epoch: 21 November)

Date Brightness Start Highest point End Pass type
(mag) Time Alt. Az. Time Alt. Az. Time Alt. Az.
28 Nov -1.7 18:16:31 10° SSW 18:17:52 19° S 18:17:52 19° S visible
29 Nov -1.8 17:25:01 10° S 17:27:04 16° SE 17:27:47 15° SE visible
29 Nov -0.8 18:59:50 10° WSW 19:00:27 15° WSW 19:00:27 15° WSW visible
30 Nov -2.9 18:07:38 10° SW 18:10:17 40° S 18:10:17 40° S visible
